Weather History for Sigonella, Italy

Change the Weather History Date:

Tuesday, December 18, 2012

  Actual Average Record
Temperature  
Mean Temperature 55 °F -  
Max Temperature 64 °F 61 °F 68 °F (2002)
Min Temperature 46 °F 42 °F 30 °F (2007)
Degree Days  
Heating Degree Days 10    
Growing Degree Days 5 (Base 50)    
Moisture  
Dew Point 41 °F    
Average Humidity 63    
Maximum Humidity 93    
Minimum Humidity 23    
Precipitation  
Precipitation 0.02 in 0.08 in - ()
Sea Level Pressure  
Sea Level Pressure 29.86 in    
Wind  
Wind Speed 15 mph ()    
Max Wind Speed 26 mph    
Max Gust Speed 36 mph    
Visibility 6.3 miles    
Events Rain    
Averages and records for this station are not official NWS values.
T = Trace of Precipitation, MM = Missing Value Source: Averaged Metar Reports

Daily Weather History Graph

Daily Weather History Graph

Search for Another Location

Airport:

Trip Planner

Search our weather history database for the weather conditions in past years. The results will help you decide how hot, cold, wet, or windy it might be!

Date:

Astronomy

Dec. 18, 2012 Rise Set
Actual Time 7:09 AM CET 4:44 PM CET
Civil Twilight 6:40 AM CET 5:13 PM CET
Nautical Twilight 6:07 AM CET 5:46 PM CET
Astronomical Twilight 5:35 AM CET 6:18 PM CET
Moon 10:46 AM CET (12/18) 10:45 PM CET (12/18)
Length of Visible Light 10h 33m
Length of Day
9h 35m
Waxing Crescent, 32% of the Moon is Illuminated
Dec 18
Waxing Crescent
Dec 20
First Quarter
Dec 28
Full
Jan 5
Last Quarter
Jan 11
New

Hourly Weather History & Observations

Time (CET) Temp. Windchill Dew Point Humidity Pressure Visibility Wind Dir Wind Speed Gust Speed Precip Events Conditions
1:55 AM 53.6 °F - 46.4 °F 77% 29.86 in 6.2 mi West 16.1 mph - N/A   Partly Cloudy
2:55 AM 51.8 °F - 44.6 °F 76% 29.83 in 6.2 mi West 13.8 mph - N/A   Partly Cloudy
3:55 AM 50.0 °F - 46.4 °F 87% 29.83 in 6.2 mi West 13.8 mph - N/A   Scattered Clouds
4:00 AM 51 °F - 46 °F 77% 29.86 in 7 mi West 13.8 mph - -   Partly Cloudy
4:55 AM 50.0 °F - 44.6 °F 82% 29.83 in 6.2 mi West 16.1 mph - N/A   Partly Cloudy
5:55 AM 50.0 °F - 42.8 °F 76% 29.83 in 6.2 mi West 18.4 mph - N/A   Partly Cloudy
6:55 AM 51.8 °F - 44.6 °F 76% 29.86 in 6.2 mi West 17.3 mph - N/A   Scattered Clouds
7:00 AM 52 °F - 44 °F 66% 29.86 in 9 mi West 17.3 mph - -   Partly Cloudy
7:55 AM 53.6 °F - 44.6 °F 72% 29.86 in 6.2 mi West 18.4 mph - N/A   Partly Cloudy
8:55 AM 53.6 °F - 42.8 °F 67% 29.89 in 6.2 mi West 17.3 mph - N/A   Partly Cloudy
9:55 AM 57.2 °F - 42.8 °F 59% 29.89 in 6.2 mi West 17.3 mph - N/A   Partly Cloudy
10:00 AM 58 °F - 42 °F 44% 29.90 in 6 mi West 17.3 mph - -   Scattered Clouds
10:55 AM 59.0 °F - 35.6 °F 42% 29.89 in 6.2 mi WNW 19.6 mph - N/A   Scattered Clouds
11:55 AM 57.2 °F - 39.2 °F 51% 29.86 in 6.2 mi North 10.4 mph - N/A   Scattered Clouds
12:55 PM 64.4 °F - 35.6 °F 34% 29.83 in 6.2 mi WNW 26.5 mph - N/A   Scattered Clouds
1:00 PM 64 °F - 35 °F 23% 29.85 in 6 mi WNW 26.5 mph - -   Partly Cloudy
1:55 PM 59.0 °F - 33.8 °F 39% 29.83 in 6.2 mi NW 20.7 mph 32.2 mph N/A   Scattered Clouds
2:55 PM 59.0 °F - 33.8 °F 39% 29.83 in 6.2 mi WNW 24.2 mph - N/A   Scattered Clouds
3:55 PM 59.0 °F - 32.0 °F 36% 29.83 in 6.2 mi NW 24.2 mph 35.7 mph N/A   Scattered Clouds
4:00 PM 58 °F - 32 °F 26% 29.85 in 6 mi NW 24.2 mph - -   Partly Cloudy
4:55 PM 55.4 °F - 41.0 °F 58% 29.86 in 6.2 mi WNW 18.4 mph - N/A   Mostly Cloudy
5:55 PM 53.6 °F - 41.0 °F 62% 29.86 in 6.2 mi West 16.1 mph - N/A   Mostly Cloudy
6:55 PM 50.0 °F - 39.2 °F 66% 29.86 in 6.2 mi West 16.1 mph - N/A   Scattered Clouds
7:00 PM 50 °F - 39 °F 55% 29.89 in 6 mi West 16.1 mph - -   Partly Cloudy
7:28 PM 50.0 °F - 41.0 °F 71% 29.89 in 6.2 mi West 16.1 mph - N/A Rain Light Rain
7:55 PM 50.0 °F - 41.0 °F 71% 29.86 in 6.2 mi West 13.8 mph - N/A   Scattered Clouds
8:55 PM 46.4 °F 39.0 °F 44.6 °F 93% 29.86 in 6.2 mi West 19.6 mph - N/A   Scattered Clouds
9:55 PM 46.4 °F 40.4 °F 42.8 °F 87% 29.86 in 6.2 mi West 13.8 mph - N/A   Scattered Clouds
10:00 PM 46 °F - 42 °F 83% 29.86 in 6 mi West 13.8 mph - -   Partly Cloudy
10:55 PM 48.2 °F - 42.8 °F 82% 29.86 in 6.2 mi West 15.0 mph - N/A   Scattered Clouds
11:55 PM 50.0 °F - 42.8 °F 76% 29.86 in 6.2 mi West 8.1 mph - N/A   Scattered Clouds